Home   Weather   Landsberg am Lech   Past weeks

Flag for Germany Past Weather in Landsberg am Lech, Bavaria, Germany — Yesterday and Last 2 Weeks

Now
45 °F

Partly sunny.


Feels Like: 40 °F
Forecast: 26 / 62 °F
Wind: 9 mph from West

Location: Landsberg

Current Time: Apr 23, 2017 at 2:14:46 pm

Latest Report: Apr 23, 2017 at 1:20 pm


Visibility: N/A

Pressure: 30.21 "Hg (28.10 "Hg at 593m altitude)

Humidity: 53%

Dew Point: 28 °F

Location of Landsberg am LechLocation

Past Weather in Landsberg am Lech — Graph

°F

Landsberg am Lech Temperature Yesterday

Maximum temperature yesterday: 50 °F (at 4:20 pm)
Minimum temperature yesterday: 37 °F (at 1:20 am)
Average temperature yesterday: 43 °F

High & Low Weather Summary for the Past Weeks

 TemperatureHumidityPressure
High70 °F (Apr 9, 4:20 pm)100% (Apr 18, 6:15 am)30.51 "Hg (Apr 18, 6:15 am)
Low25 °F (Apr 20, 5:20 am)29% (Apr 9, 4:20 pm)29.92 "Hg (Apr 13, 3:20 am)
Average44 °F69%30.16 "Hg
* Reported Apr 8 1:20 pm — Apr 23 1:20 pm, Landsberg am Lech, Weather by CustomWeather, © 2017

Note: Actual official high and low records may vary slightly from our data, if they occured in-between our weather recording intervals... More about our weather records

Advertising

Landsberg am Lech Weather History for the Previous 24 Hours

Scroll right to see more
 ConditionsComfort  
Time TempWeatherWind HumidityBarometerVisibility
1:20 pm
Sun, Apr 23
45 °FPartly sunny.9 mph53%30.21 "HgN/A
12:20 pm41 °FBroken clouds.9 mph66%30.21 "HgN/A
11:41 am43 °FBroken clouds.13 mph61%30.21 "HgN/A
11:20 am41 °FPartly sunny.10 mph66%30.21 "HgN/A
10:20 am41 °FPartly sunny.9 mph66%30.21 "HgN/A
9:20 am39 °FPartly sunny.9 mph75%30.21 "HgN/A
8:20 am39 °FPartly sunny.7 mph75%30.21 "HgN/A
7:20 am37 °FPartly sunny.5 mph81%30.18 "HgN/A
6:20 am37 °FPartly sunny.6 mph81%30.18 "HgN/A
5:20 am39 °FPassing clouds.7 mph81%30.18 "HgN/A
4:20 am39 °FPassing clouds.6 mph81%30.18 "HgN/A
3:20 am39 °FPassing clouds.7 mph81%30.18 "HgN/A
2:20 am39 °FPassing clouds.7 mph81%30.18 "HgN/A
1:20 am39 °FPassing clouds.8 mph81%30.18 "HgN/A
12:20 am39 °FPassing clouds.7 mph81%30.18 "HgN/A
11:20 pm
Sat, Apr 22
39 °FLight rain. Partly cloudy.13 mph87%30.18 "HgN/A
10:20 pm41 °FLight rain. Partly cloudy.7 mph93%30.15 "HgN/A
9:20 pm41 °FLight rain. Partly cloudy.9 mph93%30.15 "HgN/A
8:20 pm45 °FLight rain. Partly cloudy.9 mph81%30.15 "HgN/A
7:20 pm45 °FLight rain. Partly sunny.12 mph81%30.15 "HgN/A
6:20 pm48 °FLight rain. Broken clouds.15 mph62%30.12 "HgN/A
5:20 pm48 °FPartly sunny.16 mph58%30.12 "HgN/A
4:20 pm50 °FPartly sunny.20 mph58%30.15 "HgN/A
3:20 pm48 °FPartly sunny.18 mph58%30.15 "HgN/A
2:20 pm48 °FPartly sunny.17 mph58%30.18 "HgN/A
Weather by CustomWeather, © 2017

See weather overviewHow to use our weather pages